Time,TemperatureF,DewpointF,PressureIn,WindDirection,WindDirectionDegrees,WindSpeedMPH,WindSpeedGustMPH,Humidity,HourlyPrecipIn,Conditions,Clouds,dailyrainin,SoftwareType,DateUTC
2013-05-13 00:00:00,48.8,33.4,29.98,NW,311,0.0,0.0,55,0.00,,CLR,0.00,VWS V14.01,2013-05-13 04:00:00,
2013-05-13 00:01:00,48.8,33.8,29.99,WNW,294,2.0,4.0,56,0.00,,CLR,0.00,VWS V14.01,2013-05-13 04:01:00,
2013-05-13 00:06:00,48.7,33.3,29.98,West,260,2.0,5.0,55,0.00,,CLR,0.00,VWS V14.01,2013-05-13 04:06:00,
2013-05-13 00:11:00,48.6,33.2,29.99,NNW,339,0.0,5.0,55,0.00,,CLR,0.00,VWS V14.01,2013-05-13 04:11:00,
2013-05-13 00:16:00,48.4,33.4,29.99,NNW,339,2.0,5.0,56,0.00,,CLR,0.00,VWS V14.01,2013-05-13 04:16:00,
2013-05-13 00:22:00,48.4,33.4,29.99,WNW,294,2.0,6.0,56,0.00,,CLR,0.00,VWS V14.01,2013-05-13 04:22:00,
2013-05-13 00:27:00,48.3,33.3,29.99,NW,323,0.0,6.0,56,0.00,,CLR,0.00,VWS V14.01,2013-05-13 04:27:00,
2013-05-13 00:32:00,48.2,33.3,29.99,WNW,283,1.0,4.0,56,0.00,,CLR,0.00,VWS V14.01,2013-05-13 04:32:00,
2013-05-13 00:37:00,48.1,34.0,29.99,WNW,297,1.0,4.0,58,0.00,,CLR,0.00,VWS V14.01,2013-05-13 04:37:00,
2013-05-13 00:42:00,47.9,34.3,29.99,WNW,292,0.0,4.0,59,0.00,,CLR,0.00,VWS V14.01,2013-05-13 04:42:00,
2013-05-13 00:47:00,47.7,34.9,29.99,WNW,292,0.0,4.0,61,0.00,,CLR,0.00,VWS V14.01,2013-05-13 04:47:00,
2013-05-13 00:52:00,47.3,34.5,30.00,WNW,292,0.0,4.0,61,0.00,,CLR,0.00,VWS V14.01,2013-05-13 04:52:00,
2013-05-13 00:57:00,46.8,34.5,30.00,WNW,292,0.0,4.0,62,0.00,,CLR,0.00,VWS V14.01,2013-05-13 04:57:00,
2013-05-13 01:02:00,46.4,34.1,30.00,WNW,292,0.0,0.0,62,0.00,,CLR,0.00,VWS V14.01,2013-05-13 05:02:00,
2013-05-13 01:07:00,46.1,34.2,30.00,WNW,292,0.0,0.0,63,0.00,,CLR,0.00,VWS V14.01,2013-05-13 05:07:00,
2013-05-13 01:12:00,45.8,34.3,30.00,WNW,292,0.0,2.0,64,0.00,,CLR,0.00,VWS V14.01,2013-05-13 05:12:00,
2013-05-13 01:17:00,45.5,34.4,30.00,WNW,292,0.0,2.0,65,0.00,,CLR,0.00,VWS V14.01,2013-05-13 05:17:00,
2013-05-13 01:22:00,45.3,34.6,30.00,NNW,333,0.0,3.0,66,0.00,,CLR,0.00,VWS V14.01,2013-05-13 05:22:00,
2013-05-13 01:27:00,45.0,34.7,30.00,NW,309,0.0,3.0,67,0.00,,CLR,0.00,VWS V14.01,2013-05-13 05:27:00,
2013-05-13 01:32:00,44.8,34.9,30.00,NW,313,1.0,1.0,68,0.00,,CLR,0.00,VWS V14.01,2013-05-13 05:32:00,
2013-05-13 01:37:00,44.5,34.6,30.00,NW,313,0.0,2.0,68,0.00,,CLR,0.00,VWS V14.01,2013-05-13 05:37:00,
2013-05-13 01:42:00,44.3,34.8,30.00,NW,305,0.0,5.0,69,0.00,,CLR,0.00,VWS V14.01,2013-05-13 05:42:00,
2013-05-13 01:47:00,44.3,34.4,30.00,WNW,301,0.0,5.0,68,0.00,,CLR,0.00,VWS V14.01,2013-05-13 05:47:00,
2013-05-13 01:52:00,44.2,34.3,30.00,WSW,251,0.0,5.0,68,0.00,,CLR,0.00,VWS V14.01,2013-05-13 05:52:00,
2013-05-13 01:57:00,44.1,34.6,30.00,WSW,252,0.0,5.0,69,0.00,,CLR,0.00,VWS V14.01,2013-05-13 05:57:00,
2013-05-13 02:02:00,44.0,34.9,30.00,WSW,252,0.0,0.0,70,0.00,,CLR,0.00,VWS V14.01,2013-05-13 06:02:00,
2013-05-13 02:07:00,43.7,34.2,30.00,WSW,252,0.0,1.0,69,0.00,,CLR,0.00,VWS V14.01,2013-05-13 06:07:00,
2013-05-13 02:12:00,43.5,34.4,30.00,WSW,252,0.0,1.0,70,0.00,,CLR,0.00,VWS V14.01,2013-05-13 06:12:00,
2013-05-13 02:17:00,43.3,34.2,30.00,WSW,252,1.0,2.0,70,0.00,,CLR,0.00,VWS V14.01,2013-05-13 06:17:00,
2013-05-13 02:22:00,43.1,34.7,30.00,SW,230,0.0,2.0,72,0.00,,CLR,0.00,VWS V14.01,2013-05-13 06:22:00,
2013-05-13 02:27:00,42.8,34.8,30.00,SW,229,0.0,2.0,73,0.00,,CLR,0.00,VWS V14.01,2013-05-13 06:27:00,
2013-05-13 02:32:00,42.6,34.6,30.00,SW,229,0.0,1.0,73,0.00,,CLR,0.00,VWS V14.01,2013-05-13 06:32:00,
2013-05-13 02:37:00,42.4,34.7,30.00,SW,230,0.0,1.0,74,0.00,,CLR,0.00,VWS V14.01,2013-05-13 06:37:00,
2013-05-13 02:42:00,42.3,35.0,30.00,SW,229,0.0,1.0,75,0.00,,CLR,0.00,VWS V14.01,2013-05-13 06:42:00,
2013-05-13 02:47:00,42.1,34.8,30.00,SW,230,0.0,1.0,75,0.00,,CLR,0.00,VWS V14.01,2013-05-13 06:47:00,
2013-05-13 02:53:00,41.9,34.6,30.00,SW,229,0.0,1.0,75,0.00,,CLR,0.00,VWS V14.01,2013-05-13 06:53:00,
2013-05-13 02:58:00,41.7,34.7,30.00,SW,229,0.0,1.0,76,0.00,,CLR,0.00,VWS V14.01,2013-05-13 06:58:00,
2013-05-13 03:03:00,41.6,34.9,30.00,SW,229,0.0,0.0,77,0.00,,CLR,0.00,VWS V14.01,2013-05-13 07:03:00,
2013-05-13 03:08:00,41.4,35.1,29.99,SW,229,0.0,0.0,78,0.00,,CLR,0.00,VWS V14.01,2013-05-13 07:08:00,
2013-05-13 03:13:00,41.3,35.3,30.00,SW,230,0.0,0.0,79,0.00,,CLR,0.00,VWS V14.01,2013-05-13 07:13:00,
2013-05-13 03:18:00,41.1,35.4,30.00,SW,229,0.0,0.0,80,0.00,,CLR,0.00,VWS V14.01,2013-05-13 07:18:00,
2013-05-13 03:23:00,40.9,35.5,30.00,SW,230,0.0,0.0,81,0.00,,CLR,0.00,VWS V14.01,2013-05-13 07:23:00,
2013-05-13 03:28:00,40.8,35.1,30.00,SW,229,0.0,0.0,80,0.00,,CLR,0.00,VWS V14.01,2013-05-13 07:28:00,
2013-05-13 03:33:00,40.6,34.9,30.00,SW,229,0.0,0.0,80,0.00,,CLR,0.00,VWS V14.01,2013-05-13 07:33:00,
2013-05-13 03:38:00,40.5,34.5,30.00,SW,230,0.0,0.0,79,0.00,,CLR,0.00,VWS V14.01,2013-05-13 07:38:00,
2013-05-13 03:43:00,40.4,35.0,30.00,SW,229,0.0,0.0,81,0.00,,CLR,0.00,VWS V14.01,2013-05-13 07:43:00,
2013-05-13 03:48:00,40.3,34.9,30.00,SW,229,0.0,0.0,81,0.00,,CLR,0.00,VWS V14.01,2013-05-13 07:48:00,
2013-05-13 03:53:00,40.2,35.5,30.00,SW,229,0.0,0.0,83,0.00,,CLR,0.00,VWS V14.01,2013-05-13 07:53:00,
2013-05-13 03:58:00,40.1,35.4,30.01,SW,229,0.0,0.0,83,0.00,,CLR,0.00,VWS V14.01,2013-05-13 07:58:00,
2013-05-13 04:03:00,39.9,35.2,30.00,SW,229,0.0,0.0,83,0.00,,CLR,0.00,VWS V14.01,2013-05-13 08:03:00,
2013-05-13 04:08:00,39.7,35.0,30.00,SW,229,0.0,0.0,83,0.00,,CLR,0.00,VWS V14.01,2013-05-13 08:08:00,
2013-05-13 04:13:00,39.6,35.2,30.00,SW,229,0.0,0.0,84,0.00,,CLR,0.00,VWS V14.01,2013-05-13 08:13:00,
2013-05-13 04:18:00,39.5,35.4,30.00,SW,229,0.0,0.0,85,0.00,,CLR,0.00,VWS V14.01,2013-05-13 08:18:00,
2013-05-13 04:23:00,39.3,35.2,30.00,SW,230,0.0,0.0,85,0.00,,CLR,0.00,VWS V14.01,2013-05-13 08:23:00,
2013-05-13 04:28:00,39.2,35.4,30.00,SW,230,0.0,0.0,86,0.00,,CLR,0.00,VWS V14.01,2013-05-13 08:28:00,
2013-05-13 04:34:00,39.1,35.3,30.01,SW,229,0.0,1.0,86,0.00,,CLR,0.00,VWS V14.01,2013-05-13 08:34:00,
2013-05-13 04:39:00,39.0,35.2,30.01,SW,214,0.0,2.0,86,0.00,,CLR,0.00,VWS V14.01,2013-05-13 08:39:00,
2013-05-13 04:44:00,38.9,35.1,30.01,SW,214,1.0,2.0,86,0.00,,CLR,0.00,VWS V14.01,2013-05-13 08:44:00,
2013-05-13 04:49:00,38.9,35.4,30.01,SSW,213,0.0,2.0,87,0.00,,CLR,0.00,VWS V14.01,2013-05-13 08:49:00,
2013-05-13 04:54:00,38.9,35.4,30.01,SSW,213,0.0,2.0,87,0.00,,CLR,0.00,VWS V14.01,2013-05-13 08:54:00,
2013-05-13 04:59:00,38.9,35.4,30.02,SSW,213,0.0,2.0,87,0.00,,CLR,0.00,VWS V14.01,2013-05-13 08:59:00,
2013-05-13 05:04:00,39.0,35.5,30.02,SSW,213,0.0,1.0,87,0.00,,CLR,0.00,VWS V14.01,2013-05-13 09:04:00,
2013-05-13 05:09:00,39.2,35.4,30.02,SE,130,0.0,3.0,86,0.00,,CLR,0.00,VWS V14.01,2013-05-13 09:09:00,
2013-05-13 05:14:00,39.4,35.6,30.02,SE,130,0.0,3.0,86,0.00,,CLR,0.00,VWS V14.01,2013-05-13 09:14:00,
2013-05-13 05:19:00,39.5,36.0,30.03,SE,144,0.0,3.0,87,0.00,,CLR,0.00,VWS V14.01,2013-05-13 09:19:00,
2013-05-13 05:24:00,39.7,35.6,30.03,WNW,292,3.0,4.0,85,0.00,,CLR,0.00,VWS V14.01,2013-05-13 09:24:00,
2013-05-13 05:29:00,39.9,35.2,30.03,WNW,301,2.0,4.0,83,0.00,,CLR,0.00,VWS V14.01,2013-05-13 09:29:00,
2013-05-13 05:34:00,40.3,34.6,30.03,WNW,296,0.0,3.0,80,0.00,,CLR,0.00,VWS V14.01,2013-05-13 09:34:00,
2013-05-13 05:39:00,40.6,34.6,30.03,WNW,296,0.0,3.0,79,0.00,,CLR,0.00,VWS V14.01,2013-05-13 09:39:00,
2013-05-13 05:44:00,40.8,34.8,30.04,WNW,296,0.0,3.0,79,0.00,,CLR,0.00,VWS V14.01,2013-05-13 09:44:00,
2013-05-13 05:49:00,40.8,34.8,30.04,WNW,296,0.0,3.0,79,0.00,,CLR,0.00,VWS V14.01,2013-05-13 09:49:00,
2013-05-13 05:54:00,40.8,34.8,30.04,WNW,296,0.0,3.0,79,0.00,,CLR,0.00,VWS V14.01,2013-05-13 09:54:00,
2013-05-13 05:59:00,40.7,34.7,30.03,WNW,298,1.0,3.0,79,0.00,,CLR,0.00,VWS V14.01,2013-05-13 09:59:00,
2013-05-13 06:04:00,40.8,34.2,30.03,WNW,300,2.0,5.0,77,0.00,,CLR,0.00,VWS V14.01,2013-05-13 10:04:00,
2013-05-13 06:09:00,40.9,34.3,30.03,WSW,253,0.0,5.0,77,0.00,,CLR,0.00,VWS V14.01,2013-05-13 10:09:00,
2013-05-13 06:14:00,41.2,34.5,30.04,WSW,248,0.0,5.0,77,0.00,,CLR,0.00,VWS V14.01,2013-05-13 10:14:00,
2013-05-13 06:19:00,41.3,34.3,30.04,WSW,243,0.0,5.0,76,0.00,,CLR,0.00,VWS V14.01,2013-05-13 10:19:00,
2013-05-13 06:25:00,41.4,34.4,30.04,WSW,243,0.0,5.0,76,0.00,,CLR,0.00,VWS V14.01,2013-05-13 10:25:00,
2013-05-13 06:30:00,41.5,34.2,30.04,WSW,246,0.0,0.0,75,0.00,,CLR,0.00,VWS V14.01,2013-05-13 10:30:00,
2013-05-13 06:35:00,41.6,34.3,30.04,WSW,252,0.0,1.0,75,0.00,,CLR,0.00,VWS V14.01,2013-05-13 10:35:00,
2013-05-13 06:40:00,41.8,34.5,30.04,NW,322,3.0,3.0,75,0.00,,CLR,0.00,VWS V14.01,2013-05-13 10:40:00,
2013-05-13 06:45:00,42.2,34.2,30.04,NW,317,0.0,3.0,73,0.00,,CLR,0.00,VWS V14.01,2013-05-13 10:45:00,
2013-05-13 06:50:00,42.5,34.8,30.04,SSE,167,0.0,3.0,74,0.00,,CLR,0.00,VWS V14.01,2013-05-13 10:50:00,
2013-05-13 06:55:00,42.8,34.8,30.05,South,178,0.0,3.0,73,0.00,,CLR,0.00,VWS V14.01,2013-05-13 10:55:00,
2013-05-13 07:00:00,43.2,35.1,30.05,South,178,0.0,0.0,73,0.00,,CLR,0.00,VWS V14.01,2013-05-13 11:00:00,
2013-05-13 07:05:00,43.5,35.1,30.05,South,177,0.0,0.0,72,0.00,,CLR,0.00,VWS V14.01,2013-05-13 11:05:00,
2013-05-13 07:10:00,43.9,34.8,30.05,SSW,199,0.0,1.0,70,0.00,,CLR,0.00,VWS V14.01,2013-05-13 11:10:00,
2013-05-13 07:15:00,44.5,35.0,30.05,North,5,0.0,3.0,69,0.00,,CLR,0.00,VWS V14.01,2013-05-13 11:15:00,
2013-05-13 07:20:00,45.0,34.7,30.05,South,173,0.0,3.0,67,0.00,,CLR,0.00,VWS V14.01,2013-05-13 11:20:00,
2013-05-13 07:25:00,45.5,35.2,30.06,SSE,158,0.0,3.0,67,0.00,,CLR,0.00,VWS V14.01,2013-05-13 11:25:00,
2013-05-13 07:30:00,46.0,35.7,30.06,NW,326,3.0,5.0,67,0.00,,CLR,0.00,VWS V14.01,2013-05-13 11:30:00,
2013-05-13 07:35:00,46.5,35.0,30.06,West,277,3.0,6.0,64,0.00,,CLR,0.00,VWS V14.01,2013-05-13 11:35:00,
2013-05-13 07:40:00,47.0,35.5,30.06,WSW,250,1.0,6.0,64,0.00,,CLR,0.00,VWS V14.01,2013-05-13 11:40:00,
2013-05-13 07:45:00,47.5,35.1,30.06,WSW,237,1.0,9.0,62,0.00,,CLR,0.00,VWS V14.01,2013-05-13 11:45:00,
2013-05-13 07:50:00,47.8,35.0,30.07,WNW,286,2.0,9.0,61,0.00,,CLR,0.00,VWS V14.01,2013-05-13 11:50:00,
2013-05-13 07:55:00,48.2,34.6,30.07,SW,230,2.0,9.0,59,0.00,,CLR,0.00,VWS V14.01,2013-05-13 11:55:00,
2013-05-13 08:00:00,48.4,34.3,30.07,NNW,334,0.0,8.0,58,0.00,,CLR,0.00,VWS V14.01,2013-05-13 12:00:00,
2013-05-13 08:05:00,48.5,34.4,30.07,WSW,257,2.0,8.0,58,0.00,,CLR,0.00,VWS V14.01,2013-05-13 12:05:00,
2013-05-13 08:10:00,48.7,34.2,30.07,NW,315,2.0,8.0,57,0.00,,CLR,0.00,VWS V14.01,2013-05-13 12:10:00,
2013-05-13 08:15:00,48.8,34.3,30.07,NNW,344,1.0,8.0,57,0.00,,CLR,0.00,VWS V14.01,2013-05-13 12:15:00,
2013-05-13 08:20:00,49.2,34.2,30.07,NW,309,4.0,10.0,56,0.00,,CLR,0.00,VWS V14.01,2013-05-13 12:20:00,
2013-05-13 08:25:00,49.5,33.6,30.07,NE,56,2.0,10.0,54,0.00,,CLR,0.00,VWS V14.01,2013-05-13 12:25:00,
2013-05-13 08:31:00,49.8,33.8,30.07,West,259,2.0,7.0,54,0.00,,CLR,0.00,VWS V14.01,2013-05-13 12:31:00,
2013-05-13 08:36:00,50.1,34.1,30.07,WSW,250,2.0,9.0,54,0.00,,CLR,0.00,VWS V14.01,2013-05-13 12:36:00,
2013-05-13 08:41:00,50.1,32.7,30.07,WSW,251,4.0,9.0,51,0.00,,CLR,0.00,VWS V14.01,2013-05-13 12:41:00,
2013-05-13 08:46:00,50.0,32.6,30.08,NW,313,1.0,13.0,51,0.00,,CLR,0.00,VWS V14.01,2013-05-13 12:46:00,
2013-05-13 08:51:00,50.3,32.9,30.08,WNW,283,9.0,13.0,51,0.00,,CLR,0.00,VWS V14.01,2013-05-13 12:51:00,
2013-05-13 08:56:00,50.6,32.7,30.08,WNW,295,5.0,13.0,50,0.00,,CLR,0.00,VWS V14.01,2013-05-13 12:56:00,
2013-05-13 09:01:00,50.9,32.4,30.08,NW,305,1.0,6.0,49,0.00,,SCT060,0.00,VWS V14.01,2013-05-13 13:01:00,
2013-05-13 09:06:00,50.9,33.4,30.08,NW,309,1.0,6.0,51,0.00,,SCT060,0.00,VWS V14.01,2013-05-13 13:06:00,
2013-05-13 09:11:00,51.3,32.8,30.08,West,276,2.0,10.0,49,0.00,,SCT060,0.00,VWS V14.01,2013-05-13 13:11:00,
2013-05-13 09:16:00,51.1,31.6,30.08,West,281,8.0,13.0,47,0.00,,SCT060,0.00,VWS V14.01,2013-05-13 13:16:00,
2013-05-13 09:21:00,51.3,32.3,30.08,WSW,244,3.0,13.0,48,0.00,,SCT060,0.00,VWS V14.01,2013-05-13 13:21:00,
2013-05-13 09:26:00,51.6,32.0,30.08,WNW,290,2.0,13.0,47,0.00,,SCT060,0.00,VWS V14.01,2013-05-13 13:26:00,
2013-05-13 09:31:00,51.7,32.1,30.08,NW,320,3.0,5.0,47,0.00,,SCT060,0.00,VWS V14.01,2013-05-13 13:31:00,
2013-05-13 09:36:00,51.5,32.5,30.08,NW,322,3.0,6.0,48,0.00,,SCT060,0.00,VWS V14.01,2013-05-13 13:36:00,
2013-05-13 09:41:00,51.3,31.8,30.08,WNW,285,2.0,9.0,47,0.00,,SCT060,0.00,VWS V14.01,2013-05-13 13:41:00,
2013-05-13 09:46:00,51.5,32.0,30.07,SSW,199,2.0,10.0,47,0.00,,SCT060,0.00,VWS V14.01,2013-05-13 13:46:00,
2013-05-13 09:51:00,52.0,31.3,30.07,WNW,289,2.0,10.0,45,0.00,,SCT060,0.00,VWS V14.01,2013-05-13 13:51:00,
2013-05-13 09:56:00,52.5,31.8,30.08,NNW,333,1.0,14.0,45,0.00,,SCT060,0.00,VWS V14.01,2013-05-13 13:56:00,
2013-05-13 10:01:00,52.8,32.1,30.08,WSW,257,2.0,4.0,45,0.00,,SCT060,0.00,VWS V14.01,2013-05-13 14:01:00,
2013-05-13 10:06:00,52.8,32.1,30.07,NNW,336,2.0,9.0,45,0.00,,SCT060,0.00,VWS V14.01,2013-05-13 14:06:00,
2013-05-13 10:11:00,53.1,32.9,30.07,WNW,286,3.0,12.0,46,0.00,,SCT060,0.00,VWS V14.01,2013-05-13 14:11:00,
2013-05-13 10:16:00,53.4,32.0,30.07,NNW,327,6.0,12.0,44,0.00,,SCT060,0.00,VWS V14.01,2013-05-13 14:16:00,
2013-05-13 10:21:00,53.7,31.8,30.07,NW,317,3.0,12.0,43,0.00,,SCT060,0.00,VWS V14.01,2013-05-13 14:21:00,
2013-05-13 10:26:00,54.1,32.1,30.07,SW,219,4.0,12.0,43,0.00,,SCT060,0.00,VWS V14.01,2013-05-13 14:26:00,
2013-05-13 10:31:00,54.2,31.0,30.07,SW,223,3.0,7.0,41,0.00,,SCT060,0.00,VWS V14.01,2013-05-13 14:31:00,
2013-05-13 10:36:00,54.6,31.4,30.07,West,271,5.0,15.0,41,0.00,,SCT060,0.00,VWS V14.01,2013-05-13 14:36:00,
2013-05-13 10:41:00,54.1,30.9,30.07,ESE,120,3.0,15.0,41,0.00,,SCT060,0.00,VWS V14.01,2013-05-13 14:41:00,
2013-05-13 10:46:00,54.2,31.0,30.07,South,180,2.0,15.0,41,0.00,,SCT060,0.00,VWS V14.01,2013-05-13 14:46:00,
2013-05-13 10:51:00,54.3,31.7,30.08,WNW,293,4.0,15.0,42,0.00,,SCT060,0.00,VWS V14.01,2013-05-13 14:51:00,
2013-05-13 10:56:00,53.6,31.1,30.08,WNW,302,7.0,15.0,42,0.00,,SCT060,0.00,VWS V14.01,2013-05-13 14:56:00,
2013-05-13 11:01:00,54.1,32.1,30.08,West,277,6.0,9.0,43,0.00,,SCT060,0.00,VWS V14.01,2013-05-13 15:01:00,
2013-05-13 11:06:00,54.6,30.2,30.08,West,261,4.0,10.0,39,0.00,,SCT060,0.00,VWS V14.01,2013-05-13 15:06:00,
2013-05-13 11:11:00,53.9,30.8,30.08,NW,321,5.0,14.0,41,0.00,,SCT060,0.00,VWS V14.01,2013-05-13 15:11:00,
2013-05-13 11:16:00,53.8,30.7,30.08,WNW,296,0.0,14.0,41,0.00,,SCT060,0.00,VWS V14.01,2013-05-13 15:16:00,
2013-05-13 11:21:00,53.7,30.6,30.08,NNW,329,8.0,14.0,41,0.00,,SCT060,0.00,VWS V14.01,2013-05-13 15:21:00,
2013-05-13 11:27:00,54.1,30.9,30.08,WSW,255,4.0,14.0,41,0.00,,SCT060,0.00,VWS V14.01,2013-05-13 15:27:00,
2013-05-13 11:32:00,54.1,30.9,30.08,SW,234,1.0,5.0,41,0.00,,SCT060,0.00,VWS V14.01,2013-05-13 15:32:00,
2013-05-13 11:37:00,53.7,29.4,30.08,SSW,206,3.0,8.0,39,0.00,,SCT060,0.00,VWS V14.01,2013-05-13 15:37:00,
2013-05-13 11:42:00,54.4,30.6,30.08,SW,236,2.0,9.0,40,0.01,,SCT060,0.01,VWS V14.01,2013-05-13 15:42:00,
2013-05-13 11:47:00,55.4,30.9,30.08,SSW,208,4.0,11.0,39,0.01,,SCT060,0.01,VWS V14.01,2013-05-13 15:47:00,
2013-05-13 11:52:00,54.7,30.9,30.08,SW,215,6.0,13.0,40,0.01,,SCT060,0.01,VWS V14.01,2013-05-13 15:52:00,
2013-05-13 11:57:00,54.9,31.0,30.08,NW,313,6.0,13.0,40,0.01,,SCT060,0.01,VWS V14.01,2013-05-13 15:57:00,
2013-05-13 12:02:00,55.6,31.1,30.08,SW,227,2.0,7.0,39,0.01,,BKN065,0.01,VWS V14.01,2013-05-13 16:02:00,
2013-05-13 12:07:00,56.4,31.8,30.08,North,349,1.0,9.0,39,0.01,,BKN065,0.01,VWS V14.01,2013-05-13 16:07:00,
2013-05-13 12:12:00,56.4,31.1,30.08,WNW,294,5.0,10.0,38,0.01,,BKN065,0.01,VWS V14.01,2013-05-13 16:12:00,
2013-05-13 12:17:00,55.2,30.1,30.08,West,263,7.0,10.0,38,0.01,,BKN065,0.01,VWS V14.01,2013-05-13 16:17:00,
2013-05-13 12:22:00,54.5,30.1,30.08,West,274,1.0,14.0,39,0.01,,BKN065,0.01,VWS V14.01,2013-05-13 16:22:00,
2013-05-13 12:27:00,54.1,29.7,30.08,West,265,4.0,14.0,39,0.01,,BKN065,0.01,VWS V14.01,2013-05-13 16:27:00,
2013-05-13 12:32:00,55.2,30.1,30.08,West,269,4.0,11.0,38,0.01,,BKN065,0.01,VWS V14.01,2013-05-13 16:32:00,
2013-05-13 12:37:00,56.6,30.0,30.08,West,278,5.0,17.0,36,0.01,,BKN065,0.01,VWS V14.01,2013-05-13 16:37:00,
2013-05-13 12:42:00,56.8,30.1,30.07,West,281,6.0,17.0,36,0.01,,BKN065,0.01,VWS V14.01,2013-05-13 16:42:00,
2013-05-13 12:47:00,56.4,29.8,30.08,NW,317,6.0,19.0,36,0.01,,BKN065,0.01,VWS V14.01,2013-05-13 16:47:00,
2013-05-13 12:52:00,55.4,30.2,30.08,WNW,302,2.0,19.0,38,0.01,,BKN065,0.01,VWS V14.01,2013-05-13 16:52:00,
2013-05-13 12:57:00,55.9,30.0,30.07,NNW,327,2.0,19.0,37,0.01,,BKN065,0.01,VWS V14.01,2013-05-13 16:57:00,
2013-05-13 13:02:00,56.5,29.9,30.07,SW,234,3.0,12.0,36,0.00,,BKN070,0.01,VWS V14.01,2013-05-13 17:02:00,
2013-05-13 13:07:00,56.3,31.0,30.07,WNW,302,2.0,12.0,38,0.00,,BKN070,0.01,VWS V14.01,2013-05-13 17:07:00,
2013-05-13 13:12:00,56.4,29.8,30.07,South,187,3.0,12.0,36,0.00,,BKN070,0.01,VWS V14.01,2013-05-13 17:12:00,
2013-05-13 13:17:00,56.1,28.8,30.07,SSW,200,5.0,12.0,35,0.00,,BKN070,0.01,VWS V14.01,2013-05-13 17:17:00,
2013-05-13 13:22:00,56.7,30.7,30.07,West,271,2.0,12.0,37,0.00,,BKN070,0.01,VWS V14.01,2013-05-13 17:22:00,
2013-05-13 13:27:00,57.7,31.0,30.07,NNE,30,2.0,12.0,36,0.00,,BKN070,0.01,VWS V14.01,2013-05-13 17:27:00,
2013-05-13 13:32:00,58.6,30.3,30.07,West,277,3.0,10.0,34,0.00,,BKN070,0.01,VWS V14.01,2013-05-13 17:32:00,
2013-05-13 13:37:00,57.8,29.6,30.07,NW,314,6.0,11.0,34,0.00,,BKN070,0.01,VWS V14.01,2013-05-13 17:37:00,
2013-05-13 13:42:00,56.8,28.8,30.07,NW,309,8.0,12.0,34,0.00,,BKN070,0.01,VWS V14.01,2013-05-13 17:42:00,
2013-05-13 13:47:00,57.1,29.0,30.06,North,355,2.0,12.0,34,0.00,,BKN070,0.01,VWS V14.01,2013-05-13 17:47:00,
2013-05-13 13:52:00,57.3,29.2,30.06,SSW,195,2.0,12.0,34,0.00,,BKN070,0.01,VWS V14.01,2013-05-13 17:52:00,
2013-05-13 13:57:00,57.8,30.4,30.06,NW,318,5.0,13.0,35,0.00,,BKN070,0.01,VWS V14.01,2013-05-13 17:57:00,
2013-05-13 14:02:00,58.3,30.8,30.06,WSW,244,9.0,11.0,35,0.00,,OVC080,0.01,VWS V14.01,2013-05-13 18:02:00,
2013-05-13 14:08:00,58.0,29.8,30.06,WNW,291,7.0,13.0,34,0.00,,OVC080,0.01,VWS V14.01,2013-05-13 18:08:00,
2013-05-13 14:13:00,58.2,31.4,30.06,NW,321,6.0,14.0,36,0.00,,OVC080,0.01,VWS V14.01,2013-05-13 18:13:00,
2013-05-13 14:18:00,58.5,28.8,30.06,WNW,302,8.0,14.0,32,0.00,,OVC080,0.01,VWS V14.01,2013-05-13 18:18:00,
2013-05-13 14:23:00,58.1,29.2,30.05,West,265,8.0,14.0,33,0.00,,OVC080,0.01,VWS V14.01,2013-05-13 18:23:00,
2013-05-13 14:28:00,57.9,30.4,30.06,WNW,285,2.0,16.0,35,0.00,,OVC080,0.01,VWS V14.01,2013-05-13 18:28:00,
2013-05-13 14:33:00,57.9,30.4,30.06,NW,313,9.0,12.0,35,0.00,,OVC080,0.01,VWS V14.01,2013-05-13 18:33:00,
2013-05-13 14:38:00,58.2,29.3,30.06,WNW,298,4.0,16.0,33,0.00,,OVC080,0.01,VWS V14.01,2013-05-13 18:38:00,
2013-05-13 14:43:00,57.2,27.6,30.06,West,278,3.0,16.0,32,0.00,,OVC080,0.01,VWS V14.01,2013-05-13 18:43:00,
2013-05-13 14:48:00,57.8,29.6,30.06,WNW,296,14.0,16.0,34,0.00,,OVC080,0.01,VWS V14.01,2013-05-13 18:48:00,
2013-05-13 14:53:00,57.4,29.3,30.06,NW,313,4.0,16.0,34,0.00,,OVC080,0.01,VWS V14.01,2013-05-13 18:53:00,
2013-05-13 14:58:00,57.7,30.3,30.06,NW,322,3.0,16.0,35,0.00,,OVC080,0.01,VWS V14.01,2013-05-13 18:58:00,
2013-05-13 15:03:00,58.2,30.7,30.06,West,273,13.0,13.0,35,0.00,,BKN090,0.01,VWS V14.01,2013-05-13 19:03:00,
2013-05-13 15:08:00,58.1,28.4,30.05,NW,312,2.0,13.0,32,0.00,,BKN090,0.01,VWS V14.01,2013-05-13 19:08:00,
2013-05-13 15:13:00,58.0,29.8,30.05,NW,304,5.0,14.0,34,0.00,,BKN090,0.01,VWS V14.01,2013-05-13 19:13:00,
2013-05-13 15:18:00,57.2,28.4,30.05,NW,316,4.0,15.0,33,0.00,,BKN090,0.01,VWS V14.01,2013-05-13 19:18:00,
2013-05-13 15:23:00,56.7,28.7,30.05,West,263,6.0,15.0,34,0.00,,BKN090,0.01,VWS V14.01,2013-05-13 19:23:00,
2013-05-13 15:28:00,57.0,28.9,30.05,WNW,284,4.0,16.0,34,0.00,,BKN090,0.01,VWS V14.01,2013-05-13 19:28:00,
2013-05-13 15:33:00,57.7,30.3,30.05,WNW,287,9.0,11.0,35,0.00,,BKN090,0.01,VWS V14.01,2013-05-13 19:33:00,
2013-05-13 15:38:00,57.5,30.8,30.05,NNW,338,9.0,11.0,36,0.00,,BKN090,0.01,VWS V14.01,2013-05-13 19:38:00,
2013-05-13 15:43:00,57.2,29.1,30.05,NW,322,4.0,14.0,34,0.00,,BKN090,0.01,VWS V14.01,2013-05-13 19:43:00,
2013-05-13 15:48:00,56.8,29.5,30.05,NNW,329,5.0,14.0,35,0.00,,BKN090,0.01,VWS V14.01,2013-05-13 19:48:00,
2013-05-13 15:53:00,56.6,28.6,30.05,West,277,2.0,14.0,34,0.00,,BKN090,0.01,VWS V14.01,2013-05-13 19:53:00,
2013-05-13 15:58:00,55.8,29.3,30.05,NNW,330,4.0,14.0,36,0.00,,BKN090,0.01,VWS V14.01,2013-05-13 19:58:00,
2013-05-13 16:03:00,56.1,29.5,30.05,WSW,237,2.0,13.0,36,0.00,,OVC095,0.01,VWS V14.01,2013-05-13 20:03:00,
2013-05-13 16:08:00,56.4,28.4,30.05,SW,235,4.0,13.0,34,0.00,,OVC095,0.01,VWS V14.01,2013-05-13 20:08:00,
2013-05-13 16:13:00,56.1,28.8,30.05,NNW,346,12.0,17.0,35,0.00,,OVC095,0.01,VWS V14.01,2013-05-13 20:13:00,
2013-05-13 16:18:00,55.8,27.9,30.05,SW,225,6.0,17.0,34,0.00,,OVC095,0.01,VWS V14.01,2013-05-13 20:18:00,
2013-05-13 16:23:00,56.1,27.4,30.05,WNW,286,3.0,17.0,33,0.00,,OVC095,0.01,VWS V14.01,2013-05-13 20:23:00,
2013-05-13 16:28:00,56.6,28.6,30.05,NW,323,4.0,17.0,34,0.00,,OVC095,0.01,VWS V14.01,2013-05-13 20:28:00,
2013-05-13 16:33:00,56.7,28.7,30.05,WNW,301,5.0,10.0,34,0.00,,OVC095,0.01,VWS V14.01,2013-05-13 20:33:00,
2013-05-13 16:38:00,56.7,30.1,30.05,WNW,302,3.0,10.0,36,0.00,,OVC095,0.01,VWS V14.01,2013-05-13 20:38:00,
2013-05-13 16:43:00,56.5,28.5,30.05,WNW,290,2.0,11.0,34,0.00,,OVC095,0.01,VWS V14.01,2013-05-13 20:43:00,
2013-05-13 16:48:00,56.2,30.3,30.05,SSW,200,3.0,14.0,37,0.00,,OVC095,0.01,VWS V14.01,2013-05-13 20:48:00,
2013-05-13 16:53:00,56.6,29.3,30.04,West,267,2.0,14.0,35,0.00,,OVC095,0.01,VWS V14.01,2013-05-13 20:53:00,
2013-05-13 16:58:00,56.9,28.8,30.04,NW,319,2.0,14.0,34,0.00,,OVC095,0.01,VWS V14.01,2013-05-13 20:58:00,
2013-05-13 17:03:00,57.4,30.7,30.04,NW,311,4.0,9.0,36,0.00,,SCT095,0.01,VWS V14.01,2013-05-13 21:03:00,
2013-05-13 17:09:00,57.5,29.4,30.04,NW,307,5.0,12.0,34,0.00,,SCT095,0.01,VWS V14.01,2013-05-13 21:09:00,
2013-05-13 17:14:00,57.1,27.5,30.04,NNW,327,2.0,14.0,32,0.00,,SCT095,0.01,VWS V14.01,2013-05-13 21:14:00,
2013-05-13 17:19:00,57.3,28.5,30.04,WNW,294,7.0,14.0,33,0.00,,SCT095,0.01,VWS V14.01,2013-05-13 21:19:00,
2013-05-13 17:24:00,57.3,27.7,30.04,NW,311,2.0,14.0,32,0.00,,SCT095,0.01,VWS V14.01,2013-05-13 21:24:00,
2013-05-13 17:29:00,57.4,27.8,30.04,WNW,283,5.0,14.0,32,0.00,,SCT095,0.01,VWS V14.01,2013-05-13 21:29:00,
2013-05-13 17:34:00,57.5,28.6,30.04,NNW,334,6.0,10.0,33,0.00,,SCT095,0.01,VWS V14.01,2013-05-13 21:34:00,
2013-05-13 17:39:00,57.6,28.7,30.03,North,355,5.0,10.0,33,0.00,,SCT095,0.01,VWS V14.01,2013-05-13 21:39:00,
2013-05-13 17:44:00,57.7,28.8,30.04,WNW,291,7.0,11.0,33,0.00,,SCT095,0.01,VWS V14.01,2013-05-13 21:44:00,
2013-05-13 17:49:00,57.5,27.1,30.04,WNW,301,8.0,11.0,31,0.00,,SCT095,0.01,VWS V14.01,2013-05-13 21:49:00,
2013-05-13 17:54:00,57.0,26.7,30.03,West,269,2.0,11.0,31,0.00,,SCT095,0.01,VWS V14.01,2013-05-13 21:54:00,
2013-05-13 17:59:00,57.1,27.5,30.03,WSW,247,4.0,11.0,32,0.00,,SCT095,0.01,VWS V14.01,2013-05-13 21:59:00,
2013-05-13 18:04:00,56.8,26.5,30.03,NW,311,6.0,13.0,31,0.00,,BKN090,0.01,VWS V14.01,2013-05-13 22:04:00,
2013-05-13 18:09:00,56.4,26.2,30.04,NW,323,6.0,15.0,31,0.00,,BKN090,0.01,VWS V14.01,2013-05-13 22:09:00,
2013-05-13 18:14:00,55.9,25.7,30.04,NW,309,8.0,15.0,31,0.00,,BKN090,0.01,VWS V14.01,2013-05-13 22:14:00,
2013-05-13 18:19:00,55.8,27.1,30.03,NW,311,5.0,16.0,33,0.00,,BKN090,0.01,VWS V14.01,2013-05-13 22:19:00,
2013-05-13 18:24:00,55.1,25.8,30.04,West,259,2.0,16.0,32,0.00,,BKN090,0.01,VWS V14.01,2013-05-13 22:24:00,
2013-05-13 18:29:00,54.7,26.9,30.03,NW,313,6.0,16.0,34,0.00,,BKN090,0.01,VWS V14.01,2013-05-13 22:29:00,
2013-05-13 18:34:00,54.6,27.5,30.04,NNE,13,3.0,9.0,35,0.00,,BKN090,0.01,VWS V14.01,2013-05-13 22:34:00,
2013-05-13 18:39:00,54.3,26.5,30.04,NNW,340,11.0,12.0,34,0.00,,BKN090,0.01,VWS V14.01,2013-05-13 22:39:00,
2013-05-13 18:44:00,54.2,27.2,30.03,NW,315,6.0,12.0,35,0.00,,BKN090,0.01,VWS V14.01,2013-05-13 22:44:00,
2013-05-13 18:49:00,54.2,28.5,30.04,NW,315,3.0,12.0,37,0.00,,BKN090,0.01,VWS V14.01,2013-05-13 22:49:00,
2013-05-13 18:54:00,54.0,28.3,30.04,WNW,296,7.0,12.0,37,0.00,,BKN090,0.01,VWS V14.01,2013-05-13 22:54:00,
2013-05-13 18:59:00,53.7,27.4,30.04,NW,317,0.0,12.0,36,0.00,,BKN090,0.01,VWS V14.01,2013-05-13 22:59:00,
2013-05-13 19:04:00,53.5,27.9,30.04,NW,319,5.0,10.0,37,0.00,,,0.01,VWS V14.01,2013-05-13 23:04:00,
2013-05-13 19:09:00,53.2,27.0,30.04,NNW,346,6.0,10.0,36,0.00,,,0.01,VWS V14.01,2013-05-13 23:09:00,
2013-05-13 19:14:00,53.0,26.8,30.05,WNW,295,4.0,10.0,36,0.00,,,0.01,VWS V14.01,2013-05-13 23:14:00,
2013-05-13 19:19:00,53.1,26.9,30.05,NW,312,4.0,10.0,36,0.00,,,0.01,VWS V14.01,2013-05-13 23:19:00,
2013-05-13 19:24:00,53.3,27.0,30.05,NNW,329,5.0,10.0,36,0.00,,,0.01,VWS V14.01,2013-05-13 23:24:00,
2013-05-13 19:29:00,53.5,27.9,30.05,NW,315,5.0,10.0,37,0.00,,,0.01,VWS V14.01,2013-05-13 23:29:00,
2013-05-13 19:34:00,53.4,28.5,30.06,NNW,337,6.0,11.0,38,0.00,,,0.01,VWS V14.01,2013-05-13 23:34:00,
2013-05-13 19:39:00,53.2,29.5,30.06,NW,304,5.0,11.0,40,0.00,,,0.01,VWS V14.01,2013-05-13 23:39:00,
2013-05-13 19:44:00,52.7,29.7,30.06,NNW,336,2.0,11.0,41,0.00,,,0.01,VWS V14.01,2013-05-13 23:44:00,
2013-05-13 19:49:00,52.3,29.9,30.06,NW,306,3.0,12.0,42,0.00,,,0.01,VWS V14.01,2013-05-13 23:49:00,
2013-05-13 19:54:00,51.8,30.0,30.07,NNW,333,3.0,12.0,43,0.00,,,0.01,VWS V14.01,2013-05-13 23:54:00,
2013-05-13 19:59:00,51.5,30.3,30.07,West,273,1.0,1.0,44,0.00,,CLR,0.01,VWS V14.01,2013-05-13 23:59:00,
2013-05-13 20:05:00,51.1,30.0,30.07,NW,306,3.0,11.0,44,0.00,,CLR,0.01,VWS V14.01,2013-05-14 00:05:00,
2013-05-13 20:10:00,50.9,29.2,30.07,NNW,327,5.0,11.0,43,0.00,,CLR,0.01,VWS V14.01,2013-05-14 00:10:00,
2013-05-13 20:15:00,50.6,29.5,30.08,NW,317,5.0,11.0,44,0.00,,CLR,0.01,VWS V14.01,2013-05-14 00:15:00,
2013-05-13 20:20:00,50.4,29.3,30.08,NW,323,4.0,11.0,44,0.00,,CLR,0.01,VWS V14.01,2013-05-14 00:20:00,
2013-05-13 20:25:00,50.1,29.6,30.08,NW,313,3.0,11.0,45,0.00,,CLR,0.01,VWS V14.01,2013-05-14 00:25:00,
2013-05-13 20:30:00,49.9,30.0,30.09,NNW,343,4.0,4.0,46,0.00,,CLR,0.01,VWS V14.01,2013-05-14 00:30:00,
2013-05-13 20:35:00,49.6,29.7,30.09,NW,312,1.0,4.0,46,0.00,,CLR,0.01,VWS V14.01,2013-05-14 00:35:00,
2013-05-13 20:40:00,49.3,30.5,30.09,NW,323,1.0,4.0,48,0.00,,CLR,0.01,VWS V14.01,2013-05-14 00:40:00,
2013-05-13 20:45:00,49.0,30.2,30.09,NNW,337,1.0,4.0,48,0.00,,CLR,0.01,VWS V14.01,2013-05-14 00:45:00,
2013-05-13 20:50:00,48.8,30.5,30.09,NW,317,1.0,4.0,49,0.00,,CLR,0.01,VWS V14.01,2013-05-14 00:50:00,
2013-05-13 20:55:00,48.5,30.7,30.09,WNW,300,2.0,4.0,50,0.00,,CLR,0.01,VWS V14.01,2013-05-14 00:55:00,
2013-05-13 21:00:00,48.3,31.0,30.10,NW,305,0.0,1.0,51,0.00,,CLR,0.01,VWS V14.01,2013-05-14 01:00:00,
2013-05-13 21:05:00,48.0,31.2,30.10,NW,305,0.0,2.0,52,0.00,,CLR,0.01,VWS V14.01,2013-05-14 01:05:00,
2013-05-13 21:10:00,47.7,31.4,30.10,NNW,330,1.0,3.0,53,0.00,,CLR,0.01,VWS V14.01,2013-05-14 01:10:00,
2013-05-13 21:15:00,47.5,31.2,30.11,NW,306,0.0,4.0,53,0.00,,CLR,0.01,VWS V14.01,2013-05-14 01:15:00,
2013-05-13 21:20:00,47.3,31.5,30.11,NNW,327,3.0,4.0,54,0.00,,CLR,0.01,VWS V14.01,2013-05-14 01:20:00,
2013-05-13 21:25:00,47.0,31.2,30.11,NW,322,0.0,4.0,54,0.00,,CLR,0.01,VWS V14.01,2013-05-14 01:25:00,
2013-05-13 21:30:00,46.9,31.6,30.11,NNW,336,1.0,1.0,55,0.00,,CLR,0.01,VWS V14.01,2013-05-14 01:30:00,
2013-05-13 21:35:00,46.8,32.0,30.12,NNW,329,3.0,4.0,56,0.00,,CLR,0.01,VWS V14.01,2013-05-14 01:35:00,
2013-05-13 21:40:00,46.6,31.8,30.12,NW,325,1.0,4.0,56,0.00,,CLR,0.01,VWS V14.01,2013-05-14 01:40:00,
2013-05-13 21:45:00,46.4,32.4,30.12,NNW,347,0.0,4.0,58,0.00,,CLR,0.01,VWS V14.01,2013-05-14 01:45:00,
2013-05-13 21:50:00,46.1,31.7,30.12,NNW,347,0.0,4.0,57,0.00,,CLR,0.01,VWS V14.01,2013-05-14 01:50:00,
2013-05-13 21:55:00,45.9,32.0,30.13,NNW,347,0.0,4.0,58,0.00,,CLR,0.01,VWS V14.01,2013-05-14 01:55:00,
2013-05-13 22:00:00,45.7,32.2,30.13,NNW,347,0.0,0.0,59,0.00,,CLR,0.01,VWS V14.01,2013-05-14 02:00:00,
2013-05-13 22:05:00,45.3,32.7,30.13,NNW,347,0.0,0.0,61,0.00,,CLR,0.01,VWS V14.01,2013-05-14 02:05:00,
2013-05-13 22:10:00,45.0,33.6,30.13,NNW,347,0.0,0.0,64,0.00,,CLR,0.01,VWS V14.01,2013-05-14 02:10:00,
2013-05-13 22:15:00,44.6,33.2,30.13,NNW,347,0.0,0.0,64,0.00,,CLR,0.01,VWS V14.01,2013-05-14 02:15:00,
2013-05-13 22:20:00,44.2,33.2,30.13,NNW,347,0.0,0.0,65,0.00,,CLR,0.01,VWS V14.01,2013-05-14 02:20:00,
2013-05-13 22:25:00,43.8,33.9,30.13,NNW,347,0.0,0.0,68,0.00,,CLR,0.01,VWS V14.01,2013-05-14 02:25:00,
2013-05-13 22:30:00,43.4,33.6,30.13,NNW,347,0.0,0.0,68,0.00,,CLR,0.01,VWS V14.01,2013-05-14 02:30:00,
2013-05-13 22:35:00,43.1,33.6,30.13,NNW,347,0.0,0.0,69,0.00,,CLR,0.01,VWS V14.01,2013-05-14 02:35:00,
2013-05-13 22:40:00,42.7,33.6,30.13,NNW,347,0.0,0.0,70,0.00,,CLR,0.01,VWS V14.01,2013-05-14 02:40:00,
2013-05-13 22:45:00,42.3,33.6,30.13,NNW,347,0.0,0.0,71,0.00,,CLR,0.01,VWS V14.01,2013-05-14 02:45:00,
2013-05-13 22:50:00,42.1,33.4,30.13,NNW,347,0.0,0.0,71,0.00,,CLR,0.01,VWS V14.01,2013-05-14 02:50:00,
2013-05-13 22:55:00,41.8,33.8,30.13,NNW,347,0.0,0.0,73,0.00,,CLR,0.01,VWS V14.01,2013-05-14 02:55:00,
2013-05-13 23:00:00,41.6,33.6,30.13,NNW,347,0.0,0.0,73,0.00,,CLR,0.01,VWS V14.01,2013-05-14 03:00:00,
2013-05-13 23:05:00,41.5,34.2,30.13,NNW,347,0.0,0.0,75,0.00,,CLR,0.01,VWS V14.01,2013-05-14 03:05:00,
2013-05-13 23:10:00,41.3,34.3,30.13,NNW,347,0.0,0.0,76,0.00,,CLR,0.01,VWS V14.01,2013-05-14 03:10:00,
2013-05-13 23:15:00,41.1,34.5,30.13,NNW,347,0.0,0.0,77,0.00,,CLR,0.01,VWS V14.01,2013-05-14 03:15:00,
2013-05-13 23:20:00,40.9,34.3,30.14,NNW,347,0.0,0.0,77,0.00,,CLR,0.01,VWS V14.01,2013-05-14 03:20:00,
2013-05-13 23:25:00,40.6,34.3,30.14,NNW,347,0.0,0.0,78,0.00,,CLR,0.01,VWS V14.01,2013-05-14 03:25:00,
2013-05-13 23:30:00,40.3,34.6,30.14,NNW,347,0.0,0.0,80,0.00,,CLR,0.01,VWS V14.01,2013-05-14 03:30:00,
2013-05-13 23:36:00,40.0,34.3,30.14,NNW,347,0.0,0.0,80,0.00,,CLR,0.01,VWS V14.01,2013-05-14 03:36:00,
2013-05-13 23:41:00,39.8,34.5,30.14,NNW,347,0.0,0.0,81,0.00,,CLR,0.01,VWS V14.01,2013-05-14 03:41:00,
2013-05-13 23:46:00,39.5,34.5,30.14,NNW,347,0.0,0.0,82,0.00,,CLR,0.01,VWS V14.01,2013-05-14 03:46:00,
2013-05-13 23:51:00,39.3,34.3,30.14,NNW,347,0.0,0.0,82,0.00,,CLR,0.01,VWS V14.01,2013-05-14 03:51:00,
2013-05-13 23:56:00,39.1,34.1,30.14,NNW,347,0.0,1.0,82,0.00,,CLR,0.01,VWS V14.01,2013-05-14 03:56:00,